Location: Carrières
(48.9495°N, 2.0407°E)
Time: 19:19:42
(UTC+00:00)

Altair - Pass Details

Date: 23 April 2024
Orbit: 1502 x 1682 km, 47.2° (Epoch: 21 May)

Event Time Altitude Azimuth Distance (km) Brightness Sun altitude
Rises 22:21:48 0° 282° (WNW) 4,883 10.6 -25.1°
Reaches altitude 10° 22:25:00 10° 280° (W) 3,874 10.0 -25.3°
Maximum altitude 22:34:44 68° 201° (SSW) 1,697 7.4 -25.9°
Enters shadow 22:38:25 41° 135° (SE) 2,138 7.8 -26.1°
